Flag for Germany Weather past 2 weeks in Bad Vilbel, Hesse, Germany

Now
61 °F

Passing clouds.


Feels Like: 61 °F
Forecast: 61 / 83 °F
Wind: 1 mph from Northeast

Location: Frankfurt / M-Flughafen

Current Time: Aug 1, 2014 at 4:52:44 AM

Latest Report: Aug 1, 2014 at 4:00 AM


Visibility: 19 mi

Pressure: 29.93 "Hg

Humidity: 87%

Dew point: 57 °F

Location of Bad VilbelLocation

Historic Weather in Bad Vilbel — Graph

°F

Bad Vilbel temperature yesterday

Maximum temperature yesterday: 78 °F (at 6:00 PM)
Minimum temperature yesterday: 63 °F (at 7:00 AM)
Average temperature yesterday: 71 °F

Past Weeks' High & Low Weather Summary

 TemperatureHumidityPressure
High93 °F (Jul 19, 5:00 PM)94% (Jul 29, 4:00 AM)30.18 "Hg (Jul 29, 4:00 AM)
Low59 °F (Jul 26, 5:00 AM)22% (Jul 18, 6:00 PM)29.74 "Hg (Jul 29, 3:00 PM)
Average73 °F66%29.92 "Hg
* Reported Jul 17 4:00 AM — Aug 1 4:00 AM, Bad Vilbel, Weather by CustomWeather, © 2014

Note: Actual official high and low records may vary slightly from our data, if they occured in-between our weather recording intervals... More about our weather records

Advertising

Bad Vilbel weather history for previous 24 hours

 ConditionsComfort  
Time TempWeatherWind HumidityBarometerVisibility
4:00 AM
Aug 1
61 °FPassing clouds.1 mph87%29.93 "Hg19 mi
3:00 AM60 °FPassing clouds.1 mph87%29.93 "Hg25 mi
2:00 AM61 °FPassing clouds.1 mph86%29.93 "Hg25 mi
1:00 AM62 °FClear.2 mph86%29.94 "Hg25 mi
12:00 AM64 °FPassing clouds.1 mph78%29.94 "Hg25 mi
11:00 PM
Jul 31
67 °FPassing clouds.1 mph73%29.94 "Hg25 mi
10:00 PM70 °FPassing clouds.1 mph59%29.93 "Hg25 mi
9:00 PM75 °FPassing clouds.1 mph44%29.92 "Hg25 mi
8:00 PM77 °FPassing clouds.1 mph42%29.92 "Hg25 mi
7:00 PM78 °FPassing clouds.2 mph40%29.92 "Hg25 mi
6:00 PM78 °FPassing clouds.2 mph41%29.93 "Hg28 mi
5:00 PM78 °FPassing clouds.2 mph39%29.94 "Hg25 mi
4:00 PM78 °FPassing clouds.2 mph38%29.95 "Hg19 mi
3:00 PM78 °FPassing clouds.2 mph43%29.97 "Hg16 mi
2:00 PM76 °FScattered clouds.3 mph48%29.98 "Hg16 mi
1:00 PM75 °FScattered clouds.2 mph51%29.99 "Hg16 mi
12:00 PM72 °FScattered clouds.2 mph59%30.00 "Hg16 mi
11:00 AM71 °FScattered clouds.3 mph67%30.01 "Hg16 mi
10:00 AM70 °FPassing clouds.2 mph67%30.01 "Hg16 mi
9:00 AM68 °FPassing clouds.2 mph71%30.01 "Hg12 mi
8:00 AM65 °FPassing clouds.1 mph77%30.01 "Hg16 mi
7:00 AM63 °FPassing clouds.1 mph81%30.00 "Hg19 mi
6:00 AM63 °FPassing clouds.3 mph81%29.98 "Hg25 mi
5:00 AM65 °FOvercast.2 mph76%29.97 "Hg28 mi
4:00 AM65 °FOvercast.2 mph77%29.97 "Hg28 mi
Weather by CustomWeather, © 2014

See weather overviewHow to use our weather pages